Orbital Elements at Epoch 2459200.5 (2020-Dec-17.0) TDB
Reference: JPL 37 (heliocentric ecliptic J2000)
Element | Value | Uncertainty (1-sigma) | Units |
e | .12528248779268 | 3.9428e-08 | |
a | 2.607471786190218 | 1.1165e-08 | au |
q | 2.280801233967085 | 1.0118e-07 | au |
i | 12.18170929318362 | 4.3305e-06 | deg |
node | 310.9163358445566 | 1.762e-05 | deg |
peri | 196.5583472149436 | 2.373e-05 | deg |
M | 182.2556992404396 | 1.8048e-05 | deg |
tp | 2459959.813352920492 (2023-Jan-15.31335292) | 7.9677e-05 | TDB |
period | 1537.89913872484 4.21 | 9.8775e-06 2.704e-08 | d yr |
n | .2340855722817405 | 1.5035e-09 | deg/d |
Q | 2.934142338413352 | 1.2563e-08 | au |
|
| | Orbit Determination Parameters
Additional Information
|